Regional Weather Roundup
Issued by NWS

Home | Current Version | Previous Version | Text Only | Print | Product List | Glossary Off
Versions: 1 2 3 4 5 6 7 8 9 10 11 12 13 14 15 16 17 18 19 20 21 22 23 24 25 26 27 28 29 30 31 32 33 34 35 36 37 38 39 40 41 42 43 44 45 46 47 48 49 50

000
ASUS43 KLSX 220810
RWRMO

WEATHER SUMMARY FOR MISSOURI
NATIONAL WEATHER SERVICE SPRINGFIELD MO
300 AM CDT SUN APR 22 2018

NOTE: "FAIR" INDICATES FEW OR NO CLOUDS BELOW 12,000 FEET WITH NO
       SIGNIFICANT WEATHER AND/OR OBSTRUCTIONS TO VISIBILITY.
       CURRENT SKY AND/OR WEATHER CONDITIONS ARE NOT AVAILABLE FOR
       CHILLICOTHE AND FARMINGTON.

MOZ001>031-035>038-043-044-053-054-220900-
...NORTHERN AND WESTERN MISSOURI...

CITY           SKY/WX    TMP DP  RH WIND       PRES   REMARKS
KANSAS CTY INT CLOUDY    53  30  41 NE12      30.11F
KANSAS C DTWN  CLOUDY    56  30  37 NE7       30.09F
LEE`S SUMMIT   CLOUDY    54  31  41 NE13      30.10F
ST JOSEPH      CLOUDY    53  30  41 NE9       30.13F
CHILLICOTHE      N/A     53  31  42 NE6       30.17F
KIRKSVILLE     CLOUDY    51  32  48 E12G21    30.19F

$$
MOZ066>068-077>081-088>096-101>105-220900-
...SOUTHWEST MISSOURI...

CITY           SKY/WX    TMP DP  RH WIND       PRES   REMARKS
SPRINGFIELD    CLOUDY    55  45  68 E8        29.98F
JOPLIN         CLOUDY    51  50  96 NE7       30.00F
BRANSON        LGT RAIN  52  50  93 E9        29.97F

$$
MOZ032>034-039>042-045>050-055>058-069>072-220900-
...CENTRAL MISSOURI...

CITY           SKY/WX    TMP DP  RH WIND       PRES   REMARKS
COLUMBIA       CLOUDY    56  32  40 E8        30.11F
JEFFERSON CITY CLOUDY    59  32  36 E12G21    30.11F
ROLLA          CLOUDY    56  33  42 E12       30.09F
SEDALIA        CLOUDY    54  40  59 NE9       30.09F
WHITEMAN AFB   CLOUDY    54  35  48 E12       30.04
WARRENSBURG    DRIZZLE   54  34  47 N8        30.09S
OSAGE BEACH    CLOUDY    57  37  47 NE10      30.07F

$$
MOZ051-052-059>065-220900-
...EAST CENTRAL MISSOURI...

CITY           SKY/WX    TMP DP  RH WIND       PRES   REMARKS
ST LOUIS INTL  CLOUDY    55  32  41 E13       30.16S
SPIRIT OF STL  CLOUDY    56  35  45 E8        30.14F
ST CHARLES     CLOUDY    56  32  40 E10       30.16S

$$
MOZ072>076-082>087-097>100-106>115-220900-
...SOUTH CENTRAL AND SOUTHEAST MISSOURI...

CITY           SKY/WX    TMP DP  RH WIND       PRES   REMARKS
CAPE GIRARDEAU LGT RAIN  58  46  64 E9        30.11F
FARMINGTON     LGT RAIN  54  42  64 NE3       30.13S
POPLAR BLUFF   LGT RAIN  57  50  77 E8        30.08F
WEST PLAINS    CLOUDY    55  47  74 E12       30.04F

$$



USA.gov is the U.S. government's official web portal to all federal, state and local government web resources and services.